Other Public Products
Issued by NWS Charleston, SC

Current Version | Previous Version | Graphics & Text | Print | Product List | Glossary On
Versions: 1 2 3 4 5 6 7 8 9 10 11 12 13 14 15 16 17 18 19 20 21 22 23 24 25 26 27 28 29 30 31 32 33 34 35 36 37 38 39 40 41 42 43 44 45 46 47 48 49 50
000
FPUS82 KCHS 201327
OPUCHS

TEST...KCHS/KSAV Gateway Observations...TEST
National Weather Service Charleston SC
800 AM EST MON FEB 20 2017

NOTE: "fair" indicates few or no clouds below 12,000 feet with no
significant weather and/or obstructions to visibility.

SCZ050-WAZ558-NCZ071-TXZ119-213-PAZ071-DCZ001-FLZ074-172-MI076-
NYZ176-178-MAZ016-IL014-TNZ027-NJZ106-GAZ044-MD014-201400-
...Gateway Observations for Charleston International...

CITY           SKY/WX    TMP DP  RH WIND       PRES   REMARKS
Chas Airport   MOSUNNY   54  47  77 N5        30.17R
Seattle        CLOUDY    41  39  93 N3        29.52F
Charlotte      MOSUNNY   45  40  82 CALM      30.22R
Dallas DFW     LGT RAIN  59  57  93 S7        29.92R
Dallas Love    LGT RAIN  59  56  89 SE14      29.92R
Philladelphia  SUNNY     47  34  60 NW7       30.21R
Wash National  MOSUNNY   52  44  74 N7        30.22R
Baltimore      MOSUNNY   46  41  82 CALM      30.20R
Miami          MOSUNNY   68  64  87 CALM      30.10R
Detroit        CLOUDY    36  30  79 NE3       30.29R
Newark         MOSUNNY   45  31  58 W10       30.16R
Laguardia      MOSUNNY   45  32  60 NW13      30.15R
J F K          MOSUNNY   46  33  60 NW16      30.16R
Boston Logan   MOSUNNY   39  24  55 NW13      30.13R WCI  31
Ft. Lauderdale MOSUNNY   69  64  84 N6        30.09R
Chicago O`Hare CLOUDY    44  42  93 SE8       30.13R FOG
Chicago Midway MOCLDY    49  43  80 SE8       30.14R FOG
Houston Bush   RAIN      62  59  90 N18G25    30.00R
Houston Hobby  LGT RAIN  64  60  87 NW23G40   29.98R
Nashville      MOCLDY    46  43  89 CALM      30.18R FOG
Atlanta        PTCLDY    52  46  80 E5        30.18R

$$

GAZ044-118-TXZ119-213-NCZ071-DCZ001-MDZ014-506-PAZ021-071-NJZ106-
NYZ176-178-MAZ106-OHZ011-021-055-MIZ076-KYZ091-ILZ014-INZ047-
MNZ060-201400-
...Gateway Observations for Savannah International...

CITY           SKY/WX    TMP DP  RH WIND       PRES   REMARKS
Savannah Arpt  CLOUDY    53  49  86 CALM      30.18R
Atlanta        PTCLDY    52  46  80 E5        30.18R
Charlotte      MOSUNNY   45  40  82 CALM      30.22R
Dallas DFW     LGT RAIN  59  57  93 S7        29.92R
Houston Bush   RAIN      62  59  90 N18G25    30.00R
Wash National  MOSUNNY   52  44  74 N7        30.22R
Wash Dulles    MOSUNNY   50  41  71 N6        30.22R
Baltimore      MOSUNNY   46  41  82 CALM      30.20R
Philadelphia   SUNNY     47  34  60 NW7       30.21R
Newark         MOSUNNY   45  31  58 W10       30.16R
Laguardia      MOSUNNY   45  32  60 NW13      30.15R
J F K          MOSUNNY   46  33  60 NW16      30.16R
Boston         MOSUNNY   39  24  55 NW13      30.13R WCI  31
Pittsburg      FOG       40  40 100 CALM      30.25R VSB<1/4
Akron          FOG       38  35  89 E6        30.27R VSB 1   WCI  33
Cleveland      MOCLDY    38  31  76 E3        30.29R
Cincinnati     FOG       38  38 100 E3        30.24R VSB 1/8
Columbus       FOG       36  36 100 CALM      30.27R VSB<1/4
Detroit        CLOUDY    36  30  79 NE3       30.29R
Chicago O`Hare CLOUDY    44  42  93 SE8       30.13R FOG
Minneapolis    CLOUDY    51  43  74 VRB7      29.82F
Indianapolis   FOG       42  42 100 SE7       30.20R VSB 1/8

$$




USA.gov is the U.S. government's official web portal to all federal, state and local government web resources and services.